Lid_Strength_Index
-1 -1 -1 -1 -1 -1 -1 -1 -1 -1 -2 -2 -1 -2 -2 -2 -1 6 7 4 1 -4 -3 1 1 2 3 5 4 5 9 11 10 10 9 9 10 11 11 11 11 11 11 11 10
-1 -1 -1 -1 -1 -1 -1 -1 -1 -1 -2 -2 -2 -2 -2 -2 6 7 1 -4 -4 -4 2 3 3 3 6 7 7 7 10 9 8 8 9 9 9 11 11 12 12 12 12 12 11
-1 -1 -1 -1 -1 -1 -1 -1 -1 -1 -1 -2 -2 -2 -2 -0 7 7 -3 -4 -5 -3 1 1 3 4 6 7 9 9 9 8 9 8 9 9 10 11 12 12 11 11 12 12 12
-1 -1 -1 -1 -1 -1 -1 -1 -1 -1 -1 -1 -1 -1 -1 4 10 6 -4 -4 -4 1 3 3 4 5 8 9 9 10 9 9 9 9 10 10 11 12 12 10 11 10 11 12 12
-1 -1 -0 0 -0 -1 -1 -1 -1 -1 -1 -1 -1 -1 4 8 8 6 -2 -1 4 4 5 4 6 6 8 9 10 10 11 10 10 9 10 10 11 11 12 11 12 12 12 12 12
-0 -0 -0 0 1 0 -0 -0 -1 -1 -1 -1 -1 -0 6 9 6 6 5 5 4 4 5 5 6 6 9 10 10 11 11 11 10 10 10 11 11 11 11 12 12 12 12 12 12
0 0 0 0 0 0 0 0 -0 -0 -0 -0 -1 5 8 9 7 7 5 6 5 4 5 5 6 7 8 10 10 11 12 12 11 11 11 11 12 12 11 13 13 13 12 12 12
1 1 1 1 1 1 0 0 0 0 0 0 0 7 10 7 7 7 6 6 6 6 6 6 6 8 9 10 10 12 12 13 12 12 12 11 12 11 13 13 13 13 13 12 12
1 1 1 1 1 1 1 1 0 -0 -0 1 7 9 10 5 8 7 6 7 6 6 6 6 7 9 9 11 13 13 14 14 13 12 12 13 12 12 13 13 12 13 13 13 12
2 2 2 2 2 2 2 1 1 2 4 5 8 10 10 10 9 8 7 7 8 7 7 8 10 11 11 12 15 14 14 14 15 13 13 14 14 12 13 14 12 12 13 13 13
3 3 3 3 3 2 4 8 9 10 8 10 10 10 10 10 9 9 8 8 8 9 11 10 12 12 11 11 12 13 14 15 14 12 13 14 14 12 12 14 14 13 13 13 13
4 4 3 3 4 3 6 9 9 9 11 9 10 10 10 10 11 10 9 10 10 12 10 12 13 12 12 12 12 13 14 15 14 13 13 14 14 13 13 14 13 13 13 13 12
5 4 4 4 4 6 8 8 7 8 11 10 10 11 10 10 11 11 10 11 12 13 13 13 12 12 12 13 13 14 14 15 15 14 14 15 14 14 14 14 14 14 13 13 13
5 5 5 4 7 7 9 7 7 9 15 13 11 11 10 10 12 10 10 10 12 14 13 13 13 13 14 14 14 15 14 14 15 15 16 15 16 14 14 13 14 13 14 13 13
5 5 5 5 9 9 8 7 8 11 20 13 12 9 11 11 12 11 10 11 13 13 13 14 14 14 14 14 14 15 14 15 14 16 16 15 16 13 14 12 12 12 13 13 13
6 6 5 6 8 8 7 9 10 16 20 14 12 13 13 13 13 11 12 11 12 13 14 14 14 14 14 15 15 14 15 15 15 16 17 17 16 14 13 11 11 11 11 12 12
6 6 6 6 9 6 9 11 16 19 14 15 15 14 14 15 14 14 14 15 15 17 17 15 15 15 15 15 14 15 17 18 18 18 17 17 17 14 12 12 12 11 11 11 11
6 6 6 6 6 8 10 13 20 17 16 14 14 15 16 14 15 15 15 16 15 16 17 17 18 16 16 16 16 16 17 18 20 20 19 17 17 13 13 12 12 12 12 12 11
6 8 8 6 6 8 12 17 18 16 14 15 15 17 17 15 15 16 16 16 16 15 16 18 17 17 17 17 16 16 17 16 19 20 20 18 16 13 13 12 12 12 12 11 11
8 8 8 7 8 10 13 15 16 14 13 14 17 16 18 16 16 17 17 16 15 15 15 16 18 17 17 16 17 16 16 18 19 20 21 19 19 16 14 13 12 12 11 11 11
9 9 8 9 10 12 16 16 14 12 12 14 15 16 17 16 16 17 17 16 15 16 15 17 17 18 17 18 18 19 19 19 18 19 20 21 18 15 14 13 12 12 12 12 11
10 13 9 10 14 16 16 14 12 12 12 13 14 14 15 16 17 17 17 16 15 15 16 16 17 19 18 18 17 18 18 18 18 19 21 21 19 14 14 13 13 13 13 12 12
12 12 10 10 16 16 15 14 13 13 13 13 13 13 14 15 16 16 16 14 14 15 15 16 17 19 18 18 18 18 19 19 19 19 21 19 17 15 14 14 14 14 13 12 12
12 14 12 12 14 15 15 15 14 13 13 13 13 13 14 15 15 16 15 14 14 15 11 13 17 17 18 18 17 19 19 19 18 20 20 19 16 13 13 14 13 13 13 13 12
12 14 13 15 14 14 15 14 14 14 13 13 14 14 14 15 16 16 15 15 15 11 15 15 18 18 18 17 17 17 17 19 20 18 18 16 18 14 12 13 12 12 13 13 12
12 13 14 14 14 13 13 14 14 14 13 14 14 13 14 15 14 15 15 15 15 15 16 16 17 18 18 17 17 18 16 17 18 18 18 17 17 13 12 12 13 14 14 14 12
11 12 12 14 15 14 14 13 13 13 12 12 13 13 14 13 13 13 13 13 13 15 16 17 17 19 19 18 18 19 17 16 17 18 17 18 15 12 13 13 13 13 13 13 12